Flag for India Weather past 2 weeks in Ahmedabad, Gujarat, India

Now
72 °F

Thunderstorms. Passing clouds.


Feels Like: 69 °F
Forecast: 78 / 108 °F
Wind: 3 mph from South

Location: Ahmadabad Airport


UV Index: 10 (Very high)

Visibility: 1 mi


Pressure: 29.95 "Hg

Humidity: 88%

Dew point: 68 °F

Location of AhmedabadLocation

Historic Weather in Ahmedabad

°F

Ahmedabad temperature yesterday

Maximum temperature yesterday: 102 °F (at 3:40 PM)
Minimum temperature yesterday: 79 °F (at 5:40 AM)
Average temperature yesterday: 91 °F

Past Weeks' High & Low Weather Summary

 TemperatureHumidityPressure
High108 °F (Apr 16, 3:40 PM)88% (Apr 20, 6:40 PM)29.95 "Hg (Apr 20, 6:40 PM)
Low70 °F (Apr 9, 4:40 AM)9% (Apr 9, 4:40 PM)29.65 "Hg (Apr 16, 4:40 PM)
Average89 °F37%29.80 "Hg
* Reported Apr 5 8:40 PM — Apr 20 8:40 PM, Ahmedabad, Weather by CustomWeather, © 2014

Note: Actual official high and low records may vary slightly from our data, if they occured in-between our weather recording intervals... More about our weather records

Advertising

Historic Weather Conditions — Data for Previous 24 hours

 ConditionsComfort  
Time TempWeatherWind HumidityBarometerVisibility
8:40 PM
Apr 20
72 °FThunderstorms. Passing clouds.3 mph88%29.95 "Hg1 mi
7:40 PM72 °FThunderstorms. Passing clouds.3 mph83%29.95 "Hg1 mi
6:40 PM70 °FStrong thunderstorms. Cloudy.12 mph88%29.92 "Hg1 mi
5:40 PM99 °FThunderstorms. Cloudy.6 mph29%29.65 "Hg2 mi
4:40 PM106 °FScattered clouds.6 mph23%29.68 "Hg4 mi
3:40 PM106 °FScattered clouds.5 mph23%29.68 "Hg4 mi
2:40 PM106 °FScattered clouds.5 mph23%29.74 "Hg4 mi
1:40 PM104 °FScattered clouds.8 mph29%29.77 "Hg4 mi
10:40 AM95 °FClear.3 mph47%29.86 "Hg2 mi
8:40 AM86 °FHaze.7 mph66%29.86 "Hg1 mi
7:40 AM82 °FHaze.6 mph70%29.83 "Hg1 mi
6:40 AM81 °FHaze.2 mph70%29.83 "Hg2 mi
5:40 AM84 °FClear.2 mph55%29.80 "Hg2 mi
4:40 AM82 °FHaze.5 mph66%29.80 "Hg2 mi
3:40 AM84 °FHaze.3 mph62%29.80 "Hg2 mi
2:40 AM86 °FClear.6 mph59%29.80 "Hg2 mi
1:40 AM86 °FClear.5 mph59%29.80 "Hg2 mi
11:40 PM
Apr 19
90 °FClear.7 mph49%29.83 "Hg2 mi
10:40 PM91 °FClear.6 mph46%29.83 "Hg2 mi
Weather by CustomWeather, © 2014

See weather overview